[[{"header":{"parameterUnit":"m.s-1","parameterCategory":1,"la1":30.2991,"la2":30.254,"lo1":-89.0895,"lo2":-89.0444,"dy":0.0017,"dx":0.0017,"nx":28,"ny":28,"refTime":"2023-07-26T09:00:00:Z","depth":0,"parameterNumber":2,"parameterNumberName":"U-component_of_WINDS"},"data":[0,0,0,0,0,0,0,0,0,0,0,0,0,0,0,0,0,0,0,0,0,0,0,0,0,0,0,0,0,0,0,0,0,0,0,0,0,0,0,0,0,0,0,0,0,0,0,0,0,0,0,0,0,0,0,0,0,0,-0.4299,-0.43,0,-0.4387,-0.4388,-0.4389,-0.4464,-0.4465,-0.4466,-0.4466,-0.4556,-0.4557,-0.4559,0,0,0,0,0,0,0,0,0,0,0,0,0,-0.4195,-0.4196,-0.4299,-0.43,-0.4301,-0.4387,-0.4388,-0.4389,-0.4464,-0.4465,-0.4466,-0.4467,-0.4555,-0.4557,-0.4559,0,0,0,0,0,0,0,0,0,0,0,0,0,-0.4257,-0.4197,-0.4299,-0.4349,-0.4354,-0.4387,-0.4388,-0.439,-0.4464,-0.4465,-0.4466,-0.4467,-0.4554,-0.4557,-0.4559,-0.4549,0,0,-0.4567,-0.4568,0,0,0,0,0,0,0,0,-0.4254,-0.4261,-0.434,-0.4345,-0.4351,-0.4416,-0.4384,-0.4443,-0.4463,-0.4422,-0.4466,-0.4468,-0.4508,-0.4514,-0.4528,-0.4554,-0.4557,-0.4567,-0.4568,-0.4569,-0.457,0,0,0,0,0,0,0,-0.4249,-0.4258,-0.4334,-0.4341,-0.4348,-0.4367,-0.4377,-0.4396,-0.4457,-0.4426,-0.4431,-0.4441,-0.4511,-0.4526,-0.4531,-0.4559,-0.4567,-0.4569,-0.457,-0.4571,-0.4582,-0.4581,0,0,0,0,0,0,-0.4237,-0.4253,-0.4331,-0.4336,-0.4304,-0.4368,-0.4379,-0.4394,-0.4457,-0.4468,-0.444,-0.4444,-0.4521,-0.4528,-0.4534,-0.4528,-0.4569,-0.4572,-0.4573,-0.4583,-0.4582,-0.4581,0,0,0,0,0,0,-0.4235,-0.4243,-0.4327,-0.4297,-0.4309,-0.4368,-0.4384,-0.4395,-0.4409,-0.4468,-0.4479,-0.4443,-0.4522,-0.4531,-0.4546,-0.4532,-0.4573,-0.4575,-0.4585,-0.4583,-0.4581,-0.4514,0,0,0,0,0,0,-0.4231,-0.4242,-0.4239,-0.4296,-0.431,-0.4337,-0.4383,-0.4396,-0.4414,-0.442,-0.4474,-0.4484,-0.4524,-0.4542,-0.4548,-0.4536,-0.4577,-0.4586,-0.4584,-0.4582,-0.4518,-0.4511,-0.4504,0,0,0,0,0,-0.4227,-0.4216,-0.4238,-0.4247,-0.4307,-0.4336,-0.4344,-0.4391,-0.4412,-0.4409,-0.4447,-0.4482,-0.4533,-0.4542,-0.455,-0.4539,-0.4587,-0.4585,-0.4582,-0.4521,-0.4512,-0.4504,0,0,0,0,0,0,-0.4154,-0.4224,-0.425,-0.4256,-0.429,-0.4349,-0.4346,-0.4379,-0.4407,-0.4412,-0.4468,-0.448,-0.4489,-0.4515,-0.4525,-0.4534,-0.4565,-0.4564,-0.4516,-0.4508,-0.4501,-0.4494,-0.4579,0,0,0,0,0,-0.4139,-0.4157,-0.4217,-0.4217,-0.4232,-0.4286,-0.4301,-0.4334,-0.4371,-0.4385,-0.4424,-0.4458,-0.4482,-0.4496,-0.4521,-0.4523,-0.4536,-0.4519,-0.4512,-0.4506,-0.4504,-0.4508,-0.4502,-0.4572,-0.4572,-0.4572,0,0,-0.4107,-0.4148,-0.4155,-0.4203,-0.4233,-0.425,-0.4298,-0.4314,-0.4327,-0.4387,-0.4404,-0.4434,-0.4476,-0.4484,-0.449,-0.4507,-0.4488,-0.4503,-0.4497,-0.4499,-0.4505,-0.4498,-0.4492,-0.4571,-0.4571,-0.4571,0,0,-0.4059,-0.4091,-0.4095,-0.4124,-0.417,-0.4206,-0.4207,-0.4261,-0.4284,-0.4301,-0.4348,-0.4364,-0.4404,-0.4433,-0.4452,-0.4416,-0.445,-0.4423,-0.4387,-0.439,-0.4384,-0.438,-0.4367,-0.4362,-0.4421,-0.4421,-0.4421,0,-0.4014,-0.4042,-0.4093,-0.4107,-0.4127,-0.4183,-0.4188,-0.4214,-0.4265,-0.4277,-0.4296,-0.4348,-0.438,-0.4396,-0.4388,-0.4402,-0.4405,-0.4417,-0.4381,-0.4377,-0.4373,-0.4362,-0.4358,-0.4417,-0.4418,-0.4418,-0.4419,0,-0.3985,-0.4004,-0.4002,-0.405,-0.407,-0.4079,-0.4132,-0.4146,-0.4178,-0.4212,-0.423,-0.4271,-0.4306,-0.4313,-0.4343,-0.4334,-0.4343,-0.437,-0.4403,-0.4362,-0.4353,-0.4349,-0.4412,-0.4414,-0.4415,-0.4416,0,0,-0.3891,-0.3969,-0.3968,-0.3991,-0.4046,-0.4062,-0.4074,-0.4109,-0.412,-0.4154,-0.4166,-0.4199,-0.4225,-0.4247,-0.4282,-0.4285,-0.4255,-0.4312,-0.4314,-0.43,-0.4248,-0.4227,-0.4221,-0.4278,-0.4277,-0.4277,-0.4245,0,-0.3852,-0.3877,-0.3924,-0.3935,-0.3954,-0.4008,-0.4019,-0.4054,-0.4087,-0.4108,-0.4144,-0.4167,-0.42,-0.4214,-0.4219,-0.4257,-0.4245,-0.426,-0.429,-0.429,-0.4277,-0.4216,-0.4194,-0.4162,-0.4241,-0.4241,-0.424,0,-0.3809,-0.384,-0.3853,-0.3908,-0.3918,-0.3926,-0.3963,-0.3982,-0.4023,-0.4047,-0.4073,-0.4111,-0.4128,-0.4158,-0.4181,-0.419,-0.4206,-0.4226,-0.4226,-0.4231,-0.4262,-0.4219,-0.4152,-0.4147,-0.4235,-0.4235,-0.4236,0,-0.374,-0.3786,-0.3799,-0.3818,-0.3882,-0.3887,-0.3914,-0.3957,-0.3975,-0.4007,-0.402,-0.4053,-0.4071,-0.4096,-0.4143,-0.416,-0.4162,-0.4195,-0.4182,-0.4181,-0.418,-0.4179,-0.4114,-0.4189,-0.4189,-0.4189,-0.4189,0,-0.3691,-0.3697,-0.377,-0.3778,-0.3786,-0.3841,-0.3848,-0.388,-0.3917,-0.3933,-0.3983,-0.3996,-0.4057,-0.4078,-0.4115,-0.413,-0.4137,-0.4157,-0.4167,-0.4153,-0.415,-0.4163,-0.4167,-0.4188,-0.4188,-0.4188,-0.4189,0,-0.3616,-0.3665,-0.3684,-0.3744,-0.3759,-0.3762,-0.3814,-0.3824,-0.3861,-0.3881,-0.3888,-0.3945,-0.3973,-0.4022,-0.4063,-0.4088,-0.4095,-0.4112,-0.4081,-0.4087,-0.4072,-0.4073,-0.4013,-0.4008,-0.4085,-0.4084,-0.4084,0,-0.3581,-0.3587,-0.3648,-0.3663,-0.3689,-0.3711,-0.3731,-0.3785,-0.3803,-0.3852,-0.3856,-0.3888,-0.3916,-0.3958,-0.4003,-0.4035,-0.4053,-0.403,-0.4058,-0.4044,-0.4053,-0.4052,-0.4053,-0.4023,-0.4022,-0.4021,-0.402,0,-0.3515,-0.354,-0.3566,-0.3602,-0.3624,-0.3654,-0.3687,-0.3696,-0.3758,-0.3776,-0.3805,-0.3827,-0.387,-0.3901,-0.394,-0.3968,-0.4004,-0.4011,-0.401,-0.3996,-0.3978,-0.3988,-0.4064,-0.4012,-0.4013,-0.4014,-0.4014,-0.4014,-0.346,-0.3468,-0.3513,-0.3541,-0.3572,-0.3602,-0.3615,-0.3654,-0.3679,-0.3719,-0.375,-0.3777,-0.3819,-0.3875,-0.3902,-0.3924,-0.394,-0.3938,-0.3938,-0.3937,-0.3931,-0.3975,-0.3931,-0.3931,-0.3931,-0.3932,-0.3932,0,-0.3397,-0.3429,-0.3454,-0.3499,-0.3522,-0.3555,-0.3594,-0.361,-0.3634,-0.367,-0.3698,-0.3732,-0.3762,-0.381,-0.3845,-0.3854,-0.3871,-0.3861,-0.3861,-0.3867,-0.3914,-0.3912,-0.3846,-0.3846,-0.3846,-0.3846,-0.3846,-0.3846,-0.3367,-0.3383,-0.3413,-0.3445,-0.3477,-0.3504,-0.3524,-0.3552,-0.3582,-0.3618,-0.3644,-0.3675,-0.3717,-0.3755,-0.3785,-0.3799,-0.3809,-0.3793,-0.3812,-0.3855,-0.3863,-0.3871,-0.3869,-0.3795,-0.3795,-0.3763,-0.3763,-0.3762]},{"header":{"parameterUnit":"m.s-1","parameterCategory":1,"la1":30.2991,"la2":30.254,"lo1":-89.0895,"lo2":-89.0444,"dy":0.0017,"dx":0.0017,"nx":28,"ny":28,"refTime":"2023-07-26T09:00:00:Z","depth":0,"parameterNumber":3,"parameterNumberName":"V-component_of_WINDS"},"data":[0,0,0,0,0,0,0,0,0,0,0,0,0,0,0,0,0,0,0,0,0,0,0,0,0,0,0,0,0,0,0,0,0,0,0,0,0,0,0,0,0,0,0,0,0,0,0,0,0,0,0,0,0,0,0,0,0,0,1.4171,1.417,0,1.41,1.4099,1.4099,1.4023,1.4022,1.4021,1.402,1.3946,1.3945,1.3944,0,0,0,0,0,0,0,0,0,0,0,0,0,1.4239,1.4238,1.4171,1.417,1.4169,1.41,1.4099,1.4098,1.4023,1.4022,1.4021,1.4019,1.3946,1.3945,1.3944,0,0,0,0,0,0,0,0,0,0,0,0,0,1.4193,1.4238,1.4171,1.4123,1.4118,1.4101,1.4099,1.4098,1.4023,1.4022,1.402,1.4019,1.3947,1.3945,1.3944,1.3967,0,0,1.3939,1.3939,0,0,0,0,0,0,0,0,1.4196,1.4191,1.4131,1.4127,1.4121,1.4069,1.4096,1.4054,1.4024,1.406,1.402,1.4018,1.3988,1.3983,1.3973,1.3963,1.396,1.3939,1.3938,1.3938,1.3937,0,0,0,0,0,0,0,1.4199,1.4193,1.4143,1.4131,1.4124,1.4105,1.4097,1.4088,1.4034,1.4056,1.4051,1.4043,1.3985,1.3975,1.3971,1.3959,1.3939,1.3938,1.3937,1.3936,1.3963,1.3964,0,0,0,0,0,0,1.421,1.4196,1.4145,1.4141,1.4155,1.4105,1.4096,1.4087,1.4033,1.4024,1.4045,1.404,1.3978,1.3973,1.3968,1.399,1.3938,1.3936,1.3936,1.3961,1.3963,1.3965,0,0,0,0,0,0,1.4211,1.4206,1.4148,1.4167,1.4158,1.4106,1.4097,1.4087,1.4076,1.4025,1.4015,1.4045,1.3977,1.397,1.3967,1.3986,1.3936,1.3934,1.3959,1.3962,1.3964,1.4035,0,0,0,0,0,0,1.4214,1.4207,1.4216,1.4168,1.4158,1.4149,1.4098,1.4086,1.4074,1.4068,1.4022,1.4013,1.3975,1.397,1.3966,1.3983,1.3933,1.3957,1.396,1.3963,1.4031,1.404,1.4047,0,0,0,0,0,1.4216,1.4239,1.4216,1.4211,1.4167,1.4151,1.4145,1.4101,1.4076,1.4084,1.4051,1.4014,1.3985,1.397,1.3965,1.3983,1.3956,1.3959,1.3963,1.4027,1.4038,1.4047,0,0,0,0,0,0,1.429,1.4231,1.4206,1.4214,1.4188,1.4138,1.4146,1.4114,1.4094,1.4089,1.4035,1.4025,1.4028,1.4005,1.399,1.4001,1.3965,1.3968,1.4016,1.4026,1.4034,1.4039,1.3932,0,0,0,0,0,1.4307,1.4299,1.4248,1.4259,1.4248,1.42,1.4191,1.4159,1.413,1.4119,1.4085,1.4057,1.4042,1.4033,1.4016,1.4028,1.4015,1.4037,1.4045,1.4052,1.4054,1.4057,1.4066,1.3976,1.3976,1.3976,0,0,1.4342,1.4309,1.4307,1.4273,1.4249,1.4241,1.4191,1.4185,1.4178,1.4117,1.4112,1.4087,1.4053,1.4057,1.4057,1.4038,1.4077,1.4057,1.4063,1.4061,1.4062,1.407,1.4078,1.3979,1.3978,1.3978,0,0,1.4401,1.4376,1.4382,1.4359,1.4324,1.4292,1.4294,1.4248,1.4229,1.4224,1.4178,1.4169,1.4143,1.412,1.4105,1.4156,1.4121,1.4152,1.4194,1.4197,1.4204,1.421,1.4227,1.4233,1.4155,1.4155,1.4155,0,1.4449,1.4435,1.4389,1.4386,1.4372,1.4317,1.4322,1.4302,1.4263,1.4254,1.4233,1.42,1.4173,1.417,1.4183,1.4173,1.4172,1.4156,1.4207,1.4213,1.4217,1.4232,1.4239,1.4159,1.4158,1.4158,1.4157,0,1.4495,1.4486,1.4495,1.4459,1.4446,1.4447,1.44,1.4393,1.4363,1.4333,1.4327,1.4293,1.4267,1.4264,1.4235,1.4257,1.4246,1.4217,1.418,1.4231,1.4244,1.4249,1.4164,1.4163,1.4162,1.4161,0,0,1.4597,1.4536,1.454,1.4522,1.4479,1.4471,1.4469,1.4444,1.4438,1.4413,1.4409,1.4389,1.4362,1.4345,1.4312,1.4316,1.4355,1.4285,1.4284,1.4298,1.4376,1.4397,1.4405,1.4333,1.4334,1.4334,1.4378,0,1.4648,1.4641,1.46,1.4605,1.4596,1.4544,1.4542,1.4515,1.4487,1.4474,1.4442,1.4428,1.4394,1.4383,1.4384,1.4351,1.437,1.4347,1.4327,1.4327,1.4336,1.4412,1.4434,1.4477,1.4383,1.4384,1.4385,0,1.4706,1.4684,1.4689,1.4645,1.4639,1.4638,1.4612,1.4601,1.4569,1.4548,1.4529,1.4492,1.4486,1.4452,1.4442,1.4428,1.4417,1.4399,1.44,1.4395,1.4358,1.4407,1.449,1.4496,1.4393,1.4392,1.4392,0,1.4778,1.4751,1.4749,1.4736,1.4685,1.4685,1.4664,1.463,1.4618,1.4595,1.4586,1.4563,1.4549,1.4531,1.4489,1.4469,1.4483,1.4446,1.4464,1.4466,1.4469,1.4469,1.4549,1.4465,1.4465,1.4465,1.4465,0,1.4838,1.4842,1.4781,1.478,1.4783,1.4735,1.4739,1.4712,1.4683,1.4675,1.4629,1.4623,1.4568,1.4555,1.4522,1.4518,1.4512,1.4494,1.4485,1.4498,1.45,1.4489,1.4484,1.4466,1.4466,1.4466,1.4465,0,1.4919,1.4878,1.4873,1.4825,1.4813,1.4817,1.4776,1.4773,1.4742,1.4732,1.4727,1.4679,1.4661,1.4617,1.4588,1.4566,1.457,1.4554,1.4581,1.4575,1.4595,1.4593,1.467,1.4677,1.459,1.4591,1.4592,0,1.4959,1.4961,1.4913,1.4905,1.4886,1.4873,1.486,1.4813,1.4801,1.4765,1.4766,1.4744,1.4725,1.4699,1.466,1.4637,1.4619,1.4648,1.4615,1.4627,1.4618,1.4618,1.4617,1.4655,1.4656,1.4657,1.4658,0,1.5034,1.5013,1.4997,1.4973,1.4959,1.4938,1.4914,1.491,1.4857,1.4846,1.4827,1.4812,1.4782,1.4761,1.4732,1.4709,1.4674,1.4668,1.4671,1.4683,1.4698,1.4688,1.4599,1.4666,1.4665,1.4665,1.4664,1.4664,1.5094,1.5093,1.5059,1.5042,1.5019,1.4998,1.4992,1.4961,1.4945,1.4917,1.489,1.4874,1.4841,1.4798,1.4778,1.4764,1.4746,1.475,1.4751,1.4752,1.4757,1.4701,1.4759,1.4758,1.4758,1.4758,1.4757,0,1.5165,1.5141,1.5125,1.5094,1.508,1.5049,1.5021,1.5012,1.4998,1.4971,1.4952,1.493,1.491,1.487,1.4845,1.4842,1.4825,1.4837,1.4835,1.483,1.4776,1.4775,1.485,1.485,1.485,1.485,1.485,1.485,1.52,1.5196,1.5172,1.5156,1.5131,1.5116,1.5102,1.5082,1.5059,1.5037,1.502,1.4994,1.4961,1.4934,1.4913,1.4902,1.4894,1.4911,1.4894,1.4843,1.4834,1.4826,1.4825,1.491,1.491,1.495,1.495,1.4951]}]]